IRIDIUM 121

Last updated on Fri Sep 11 2026 00:03:06 GMT+0000 (Coordinated Universal Time)

1 42812U 17039K 26253.49456738 .00000153 00000+0 47536-4 0 9998 2 42812 86.3990 318.0340 0002212 94.4215 265.7234 14.34217438482050
UTC large
Height (km)
Speed (km/s)
/
Latitude / Longitude
Inclination (degrees)
Orbital Period (minutes)
Azimuth
Elevation
Range (km)
Doppler Factor

Next 0 passes for location: London (51.5072 / 0.1276)

No passes found over London.
IRIDIUM 121